Time,TemperatureF,DewpointF,PressureIn,WindDirection,WindDirectionDegrees,WindSpeedMPH,WindSpeedGustMPH,Humidity,HourlyPrecipIn,Conditions,Clouds,dailyrainin,SoftwareType,DateUTC
2013-08-19 00:01:00,62.4,60.6,30.04,NE,45,0.0,-999.0,94,-99.99,,,0.00,Acu-Link.com,2013-08-19 05:01:00,
2013-08-19 00:16:00,62.2,60.7,30.04,NE,45,0.0,-999.0,95,-99.99,,,0.00,Acu-Link.com,2013-08-19 05:16:00,
2013-08-19 00:32:00,62.2,60.7,30.04,NE,45,0.0,-999.0,95,-99.99,,,0.00,Acu-Link.com,2013-08-19 05:32:00,
2013-08-19 00:47:00,61.7,60.5,30.04,NE,45,0.0,-999.0,96,-99.99,,,0.00,Acu-Link.com,2013-08-19 05:47:00,
2013-08-19 01:02:00,61.7,60.8,30.03,NE,45,0.0,-999.0,97,-99.99,,,0.00,Acu-Link.com,2013-08-19 06:02:00,
2013-08-19 01:18:00,60.8,59.9,30.03,NE,45,0.0,-999.0,97,-99.99,,,0.00,Acu-Link.com,2013-08-19 06:18:00,
2013-08-19 01:33:00,60.1,59.5,30.03,NE,45,0.0,-999.0,98,-99.99,,,0.00,Acu-Link.com,2013-08-19 06:33:00,
2013-08-19 01:48:00,60.8,60.5,30.02,NE,45,0.0,-999.0,99,-99.99,,,0.00,Acu-Link.com,2013-08-19 06:48:00,
2013-08-19 02:03:00,60.8,60.5,30.02,NE,45,2.2,-999.0,99,-99.99,,,0.00,Acu-Link.com,2013-08-19 07:03:00,
2013-08-19 02:18:00,61.0,60.7,30.01,NE,45,2.2,-999.0,99,-99.99,,,0.00,Acu-Link.com,2013-08-19 07:18:00,
2013-08-19 02:34:00,61.3,61.0,30.00,NE,45,0.0,-999.0,99,-99.99,,,0.00,Acu-Link.com,2013-08-19 07:34:00,
2013-08-19 02:49:00,62.1,61.8,30.01,NE,45,0.0,-999.0,99,-99.99,,,0.00,Acu-Link.com,2013-08-19 07:49:00,
2013-08-19 03:04:00,61.9,61.6,30.00,NE,45,1.1,-999.0,99,-99.99,,,0.00,Acu-Link.com,2013-08-19 08:04:00,
2013-08-19 03:19:00,61.3,61.0,30.00,NE,45,0.0,-999.0,99,-99.99,,,0.00,Acu-Link.com,2013-08-19 08:19:00,
2013-08-19 03:35:00,61.0,60.7,30.00,NE,45,0.0,-999.0,99,-99.99,,,0.00,Acu-Link.com,2013-08-19 08:35:00,
2013-08-19 03:50:00,60.3,60.0,30.01,NE,45,0.0,-999.0,99,-99.99,,,0.00,Acu-Link.com,2013-08-19 08:50:00,
2013-08-19 04:05:00,59.4,59.1,30.01,NNE,22,0.0,-999.0,99,-99.99,,,0.00,Acu-Link.com,2013-08-19 09:05:00,
2013-08-19 04:20:00,58.5,58.2,30.01,NNE,22,0.0,-999.0,99,-99.99,,,0.00,Acu-Link.com,2013-08-19 09:20:00,
2013-08-19 04:35:00,58.1,57.8,30.01,NNE,22,0.0,-999.0,99,-99.99,,,0.00,Acu-Link.com,2013-08-19 09:35:00,
2013-08-19 04:51:00,57.7,57.4,30.01,NNE,22,0.0,-999.0,99,-99.99,,,0.00,Acu-Link.com,2013-08-19 09:51:00,
2013-08-19 05:06:00,57.6,57.3,30.01,NNE,22,0.0,-999.0,99,-99.99,,,0.00,Acu-Link.com,2013-08-19 10:06:00,
2013-08-19 05:21:00,59.0,58.7,30.02,NE,45,0.0,-999.0,99,-99.99,,,0.00,Acu-Link.com,2013-08-19 10:21:00,
2013-08-19 05:36:00,58.1,57.8,30.02,NE,45,0.0,-999.0,99,-99.99,,,0.00,Acu-Link.com,2013-08-19 10:36:00,
2013-08-19 05:52:00,57.7,57.4,30.02,NE,45,0.0,-999.0,99,-99.99,,,0.00,Acu-Link.com,2013-08-19 10:52:00,
2013-08-19 06:07:00,57.6,57.3,30.02,NE,45,0.0,-999.0,99,-99.99,,,0.00,Acu-Link.com,2013-08-19 11:07:00,
2013-08-19 06:22:00,59.0,58.7,30.02,NE,45,0.0,-999.0,99,-99.99,,,0.00,Acu-Link.com,2013-08-19 11:22:00,
2013-08-19 06:38:00,59.5,59.2,30.02,NE,45,0.0,-999.0,99,-99.99,,,0.00,Acu-Link.com,2013-08-19 11:38:00,
2013-08-19 06:53:00,60.6,60.3,30.03,ENE,67,2.7,-999.0,99,-99.99,,,0.00,Acu-Link.com,2013-08-19 11:53:00,
2013-08-19 07:08:00,61.7,61.4,30.03,East,90,3.2,-999.0,99,-99.99,,,0.00,Acu-Link.com,2013-08-19 12:08:00,
2013-08-19 07:23:00,62.4,62.1,30.02,ESE,112,2.7,-999.0,99,-99.99,,,0.00,Acu-Link.com,2013-08-19 12:23:00,
2013-08-19 07:39:00,63.7,63.4,30.03,ESE,112,3.2,-999.0,99,-99.99,,,0.00,Acu-Link.com,2013-08-19 12:39:00,
2013-08-19 07:54:00,64.4,63.8,30.03,South,180,3.2,-999.0,98,-99.99,,,0.00,Acu-Link.com,2013-08-19 12:54:00,
2013-08-19 08:09:00,65.7,64.8,30.03,South,180,4.7,-999.0,97,-99.99,,,0.00,Acu-Link.com,2013-08-19 13:09:00,
2013-08-19 08:24:00,66.6,65.4,30.04,SSW,202,6.3,-999.0,96,-99.99,,,0.00,Acu-Link.com,2013-08-19 13:24:00,
2013-08-19 08:39:00,67.3,66.1,30.04,South,180,3.7,-999.0,96,-99.99,,,0.00,Acu-Link.com,2013-08-19 13:39:00,
2013-08-19 08:55:00,68.7,67.2,30.04,SSW,202,3.2,-999.0,95,-99.99,,,0.00,Acu-Link.com,2013-08-19 13:55:00,
2013-08-19 09:10:00,69.3,67.2,30.03,South,180,4.7,-999.0,93,-99.99,,,0.00,Acu-Link.com,2013-08-19 14:10:00,
2013-08-19 09:25:00,71.1,67.7,30.04,South,180,3.7,-999.0,89,-99.99,,,0.00,Acu-Link.com,2013-08-19 14:25:00,
2013-08-19 09:40:00,72.0,67.2,30.04,South,180,6.3,-999.0,85,-99.99,,,0.00,Acu-Link.com,2013-08-19 14:40:00,
2013-08-19 09:55:00,73.0,67.2,30.04,SSW,202,4.2,-999.0,82,-99.99,,,0.00,Acu-Link.com,2013-08-19 14:55:00,
2013-08-19 10:11:00,75.2,67.5,30.04,South,180,5.3,-999.0,77,-99.99,,,0.00,Acu-Link.com,2013-08-19 15:11:00,
2013-08-19 10:26:00,76.5,67.6,30.04,South,180,5.8,-999.0,74,-99.99,,,0.00,Acu-Link.com,2013-08-19 15:26:00,
2013-08-19 10:41:00,77.0,68.1,30.04,SSE,157,5.3,-999.0,74,-99.99,,,0.00,Acu-Link.com,2013-08-19 15:41:00,
2013-08-19 10:56:00,77.5,67.3,30.04,South,180,4.2,-999.0,71,-99.99,,,0.00,Acu-Link.com,2013-08-19 15:56:00,
2013-08-19 11:11:00,79.7,68.6,30.04,SSW,202,4.7,-999.0,69,-99.99,,,0.00,Acu-Link.com,2013-08-19 16:11:00,
2013-08-19 11:27:00,80.8,68.4,30.04,South,180,5.8,-999.0,66,-99.99,,,0.00,Acu-Link.com,2013-08-19 16:27:00,
2013-08-19 11:42:00,79.3,66.9,30.03,South,180,6.3,-999.0,66,-99.99,,,0.00,Acu-Link.com,2013-08-19 16:42:00,
2013-08-19 11:57:00,80.2,67.8,30.02,South,180,6.3,-999.0,66,-99.99,,,0.00,Acu-Link.com,2013-08-19 16:57:00,
2013-08-19 12:12:00,81.3,67.0,30.02,South,180,4.7,-999.0,62,-99.99,,,0.00,Acu-Link.com,2013-08-19 17:12:00,
2013-08-19 12:27:00,80.6,66.4,30.02,SSW,202,4.2,-999.0,62,-99.99,,,0.00,Acu-Link.com,2013-08-19 17:27:00,
2013-08-19 12:43:00,82.6,67.8,30.01,SE,135,6.3,-999.0,61,-99.99,,,0.00,Acu-Link.com,2013-08-19 17:43:00,
2013-08-19 12:58:00,82.0,67.2,30.01,WSW,247,4.2,-999.0,61,-99.99,,,0.00,Acu-Link.com,2013-08-19 17:58:00,
2013-08-19 13:13:00,82.8,67.0,30.00,SSW,202,4.2,-999.0,59,-99.99,,,0.00,Acu-Link.com,2013-08-19 18:13:00,
2013-08-19 13:28:00,82.9,68.5,30.00,South,180,1.1,-999.0,62,-99.99,,,0.00,Acu-Link.com,2013-08-19 18:28:00,
2013-08-19 13:43:00,82.9,67.1,29.99,South,180,3.2,-999.0,59,-99.99,,,0.00,Acu-Link.com,2013-08-19 18:43:00,
2013-08-19 13:59:00,84.0,65.5,29.99,South,180,5.3,-999.0,54,-99.99,,,0.00,Acu-Link.com,2013-08-19 18:59:00,
2013-08-19 14:14:00,83.7,65.8,29.98,ESE,112,6.3,-999.0,55,-99.99,,,0.00,Acu-Link.com,2013-08-19 19:14:00,
2013-08-19 14:29:00,85.1,68.1,29.98,SSW,202,3.7,-999.0,57,-99.99,,,0.00,Acu-Link.com,2013-08-19 19:29:00,
2013-08-19 14:45:00,84.7,64.5,29.97,South,180,7.8,-999.0,51,-99.99,,,0.00,Acu-Link.com,2013-08-19 19:45:00,
2013-08-19 15:00:00,84.7,65.1,29.97,South,180,4.2,-999.0,52,-99.99,,,0.00,Acu-Link.com,2013-08-19 20:00:00,
2013-08-19 15:15:00,84.6,65.6,29.97,South,180,7.3,-999.0,53,-99.99,,,0.00,Acu-Link.com,2013-08-19 20:15:00,
2013-08-19 15:30:00,84.9,64.2,29.96,South,180,3.2,-999.0,50,-99.99,,,0.00,Acu-Link.com,2013-08-19 20:30:00,
2013-08-19 15:46:00,84.6,63.9,29.95,WSW,247,5.3,-999.0,50,-99.99,,,0.00,Acu-Link.com,2013-08-19 20:46:00,
2013-08-19 16:01:00,84.6,63.9,29.95,SSW,202,4.2,-999.0,50,-99.99,,,0.00,Acu-Link.com,2013-08-19 21:01:00,
2013-08-19 16:16:00,84.7,65.1,29.95,South,180,10.9,-999.0,52,-99.99,,,0.00,Acu-Link.com,2013-08-19 21:16:00,
2013-08-19 16:31:00,84.7,65.6,29.95,South,180,3.7,-999.0,53,-99.99,,,0.00,Acu-Link.com,2013-08-19 21:31:00,
2013-08-19 16:46:00,84.2,65.2,29.94,SSW,202,6.3,-999.0,53,-99.99,,,0.00,Acu-Link.com,2013-08-19 21:46:00,
2013-08-19 17:17:00,83.8,65.4,29.94,South,180,8.9,-999.0,54,-99.99,,,0.00,Acu-Link.com,2013-08-19 22:17:00,
2013-08-19 17:32:00,83.3,65.4,29.93,SSW,202,5.8,-999.0,55,-99.99,,,0.00,Acu-Link.com,2013-08-19 22:32:00,
2013-08-19 17:47:00,83.1,65.8,29.93,South,180,6.8,-999.0,56,-99.99,,,0.00,Acu-Link.com,2013-08-19 22:47:00,
2013-08-19 18:02:00,82.8,66.0,29.93,ESE,112,4.7,-999.0,57,-99.99,,,0.00,Acu-Link.com,2013-08-19 23:02:00,
2013-08-19 18:18:00,82.4,65.6,29.93,South,180,4.7,-999.0,57,-99.99,,,0.00,Acu-Link.com,2013-08-19 23:18:00,
2013-08-19 18:33:00,82.0,65.2,29.93,South,180,5.3,-999.0,57,-99.99,,,0.00,Acu-Link.com,2013-08-19 23:33:00,
2013-08-19 18:48:00,81.3,65.1,29.93,South,180,3.7,-999.0,58,-99.99,,,0.00,Acu-Link.com,2013-08-19 23:48:00,
2013-08-19 19:04:00,80.4,64.7,29.93,South,180,3.2,-999.0,59,-99.99,,,0.00,Acu-Link.com,2013-08-20 00:04:00,
2013-08-19 19:19:00,78.8,66.0,29.93,South,180,1.7,-999.0,65,-99.99,,,0.00,Acu-Link.com,2013-08-20 00:19:00,
2013-08-19 19:34:00,77.2,65.4,29.93,South,180,2.7,-999.0,67,-99.99,,,0.00,Acu-Link.com,2013-08-20 00:34:00,
2013-08-19 19:49:00,76.5,65.6,29.93,South,180,2.2,-999.0,69,-99.99,,,0.00,Acu-Link.com,2013-08-20 00:49:00,
2013-08-19 20:05:00,75.4,64.9,29.93,South,180,1.7,-999.0,70,-99.99,,,0.00,Acu-Link.com,2013-08-20 01:05:00,
2013-08-19 20:20:00,74.1,64.9,29.93,South,180,0.0,-999.0,73,-99.99,,,0.00,Acu-Link.com,2013-08-20 01:20:00,
2013-08-19 20:35:00,73.2,64.4,29.93,South,180,2.2,-999.0,74,-99.99,,,0.00,Acu-Link.com,2013-08-20 01:35:00,
2013-08-19 20:50:00,72.7,64.3,29.93,South,180,2.2,-999.0,75,-99.99,,,0.00,Acu-Link.com,2013-08-20 01:50:00,
2013-08-19 21:06:00,71.8,64.2,29.93,South,180,2.2,-999.0,77,-99.99,,,0.00,Acu-Link.com,2013-08-20 02:06:00,
2013-08-19 21:21:00,70.9,64.4,29.94,South,180,0.0,-999.0,80,-99.99,,,0.00,Acu-Link.com,2013-08-20 02:21:00,
2013-08-19 21:36:00,69.8,64.0,29.94,South,180,0.0,-999.0,82,-99.99,,,0.00,Acu-Link.com,2013-08-20 02:36:00,
2013-08-19 21:52:00,69.3,63.9,29.95,South,180,0.0,-999.0,83,-99.99,,,0.00,Acu-Link.com,2013-08-20 02:52:00,
2013-08-19 22:07:00,69.4,64.0,29.94,South,180,2.2,-999.0,83,-99.99,,,0.00,Acu-Link.com,2013-08-20 03:07:00,
2013-08-19 22:22:00,69.6,64.2,29.94,South,180,1.7,-999.0,83,-99.99,,,0.00,Acu-Link.com,2013-08-20 03:22:00,
2013-08-19 22:37:00,69.6,64.2,29.94,South,180,2.7,-999.0,83,-99.99,,,0.00,Acu-Link.com,2013-08-20 03:37:00,
2013-08-19 22:53:00,69.4,64.0,29.95,South,180,2.7,-999.0,83,-99.99,,,0.00,Acu-Link.com,2013-08-20 03:53:00,
2013-08-19 23:08:00,69.6,64.2,29.94,South,180,3.2,-999.0,83,-99.99,,,0.00,Acu-Link.com,2013-08-20 04:08:00,
2013-08-19 23:23:00,69.6,64.2,29.94,South,180,3.7,-999.0,83,-99.99,,,0.00,Acu-Link.com,2013-08-20 04:23:00,
2013-08-19 23:38:00,69.4,64.0,29.93,South,180,3.7,-999.0,83,-99.99,,,0.00,Acu-Link.com,2013-08-20 04:38:00,
2013-08-19 23:53:00,69.3,63.9,29.94,South,180,2.7,-999.0,83,-99.99,,,0.00,Acu-Link.com,2013-08-20 04:53:00,